DELTA 1 DEB, 7044

Orbit data source: Space-Track

DELTA 1 DEB, 7044 is space debris in SSO originally from a launch on Tue, 06 Nov 1973 UTC launched from the Air Force Western Test Range (AFWTR). Debris objects in space refer to the collection of defunct objects orbiting the Earth. Examples of debris include non-operational satellites, rocket bodies, and fragments generated from explosions, collisions, or faulty payload assembly.

Loading next visibility...
Identifier
7044, 1973-086AL
Orbit
SSO
Last TLE update
12 hours ago
Origin
Manufacturer
Unknown
Mission
Spacecraft
Bus & Motor
Unknown
Mass
Unknown
Launch date (UTC)
1973-11-06 (52 years ago)
Launch vehicle
Unknown
Launch site
Air Force Western Test Range (AFWTR)
Object type
Payload
Rocket body
Debris
Shape & HBR
Unknown
Radar Cross Section
0.210 m², Medium (>0.1 m² and < 1m²)

Expand to show TLE details & history

TLE from 12 hours ago
0 DELTA 1 DEB
1 07044U 73086AL  25181.87449589 -.00000032  00000-0  11011-3 0  9993
2 07044 102.5495  36.6024 0089005 174.9438 198.7455 12.44511729345560
Epoch: 2025-06-30T20:59Z
TLE epoch observation values (Epoch: 2025-06-30T20:59:16.444Z)
Latitude
13.00896°
Longitude
159.67224°
Altitude
1,555.698 km
Speed
7.06 km/s
True Right ascension
02h 14m 40s
True Declination
12° 56' 29"
Sunlit
Object was in daylight at epoch
Visualization orbit readout
Latitude
74.73271°
Longitude
108.87645°
Altitude
1,503.087 km
Speed
7.118 km/s
Apparent Right ascension
07h 12m 57s
Apparent Declination
45° 59' 14"
Sunlit
Object is in daylight
Visualization observer readout
Local Sidereal Time
20:34:00
Azimuth
13.935° NNE
Elevation
-2.204°
Doppler factor
1
Orbital elements
Apogee altitude
1,555.124 km
Perigee altitude
1,415.15 km
Semi-major axis
7,863.274 km
Eccentricity
0.0089
Inclination
102.5495°
RAAN
36.6024°
Arg. of periapsis
174.9438°
True anomaly
Unknown
Mean anomaly
198.7455°
Eccentric anomaly
Unknown
Mean motion
3.11271 °/min
Orbital period
115.66 mins
BSTAR
0.00011011
Loading maneuver chart data...
Loading SW <> Apogee altitude chart data...
Loading historical data...
Loading historical data...
Loading historical data...
Loading historical data...
Loading historical data...
Loading historical data...
Loading historical data...

DELTA 1 DEB Visibility forecast

Observer location: undefined°, undefined°

Span
Click to sort rows by Start time (UTC) header in descending order
Start Az.
Max El. time (UTC)
Max El. Az.
Max El.
End time (UTC)
End Az.
13 mins2025-07-01 12:30:48.884Z106.332° ESE2025-07-01 12:36:48.884Z56.636° ENE26.327°2025-07-01 12:43:48.884Z0.444° NNE
15 mins2025-07-01 14:22:48.884Z173.094° S2025-07-01 14:29:48.884Z258.84° W43.093°2025-07-01 14:37:48.884Z336.515° NNW
4 mins2025-07-01 16:22:48.884Z259.618° W2025-07-01 16:24:48.884Z273.754° WNW11.652°2025-07-01 16:26:48.884Z287.692° WNW
13 mins2025-07-02 02:30:48.884Z37.33° NE2025-07-02 02:36:48.884Z98.503° ESE33.838°2025-07-02 02:43:48.884Z167.461° S
14 mins2025-07-02 04:23:48.884Z3.27° NNE2025-07-02 04:30:48.884Z291.065° WNW34.31°2025-07-02 04:37:48.884Z231.752° WSW
|